Vorticity
13 2 7 14 11 8 8 7 10 11 2 12 14 6 1 -4 6 0 9 -3 3 15 3 6 6 5 6 8 11 15 18 9 8 6 7 6 21 31 25 22 39 1 8 13
8 11 15 12 12 8 7 9 8 8 9 -14 -18 3 5 5 7 8 8 12 -6 14 10 6 5 6 7 7 10 17 13 13 8 7 9 14 18 22 20 29 27 5 -10 -9
7 8 12 12 14 8 10 9 5 23 9 1 2 2 2 -2 5 7 5 4 8 5 11 5 4 6 7 7 10 11 14 14 17 6 7 6 -5 27 16 17 12 7 10 4
9 9 10 17 9 13 11 10 17 4 23 10 8 8 9 14 10 8 11 10 9 16 15 5 6 5 9 6 9 9 10 13 16 15 7 6 -5 -2 20 16 15 22 20 12
11 16 18 13 5 8 15 18 12 15 17 18 8 -1 3 -7 4 6 7 5 10 13 13 5 6 8 9 6 5 9 9 10 17 21 13 11 13 -0 4 14 14 35 11 11
8 14 4 6 25 7 8 13 7 11 14 12 19 12 4 9 22 17 14 -2 13 10 11 4 6 8 10 6 4 5 8 9 7 16 26 14 8 10 2 3 1 20 8 35
18 28 12 4 0 19 13 3 6 10 14 15 8 19 10 22 -1 9 10 2 15 13 10 5 5 7 12 9 5 2 2 5 8 8 8 17 19 21 18 16 15 2 4 10
18 4 11 7 4 16 0 27 4 11 15 15 8 17 17 23 2 0 -7 -4 0 8 10 7 5 13 4 15 11 13 6 7 10 3 8 7 9 11 9 9 11 25 21 14
30 26 23 15 9 19 9 22 2 10 -21 18 34 24 -6 20 18 9 -6 9 6 9 8 9 8 1 10 8 8 4 7 9 10 8 8 4 8 8 9 9 9 6 11 16
28 32 17 11 25 21 1 7 14 14 13 -1 18 31 0 32 9 -8 16 8 6 15 7 5 7 7 6 10 8 4 5 5 8 10 16 5 9 8 8 7 10 10 9 8
13 9 -13 31 16 14 30 14 -9 -5 13 10 -7 -13 -9 16 11 20 7 19 13 5 7 7 7 8 7 5 3 -3 -5 7 1 5 16 18 3 12 9 10 11 7 7 5
8 8 1 36 19 9 -7 20 26 4 3 20 8 6 5 25 23 11 -6 3 7 7 8 7 6 4 3 6 4 7 11 8 6 10 9 29 4 6 6 6 6 8 8 10
1 5 1 -24 -13 -1 20 17 27 35 8 4 -2 25 -5 41 5 6 23 2 3 4 8 8 4 3 4 3 3 1 0 4 12 11 6 18 12 4 2 4 6 6 5 3
-1 2 10 1 9 5 7 1 -6 -12 3 26 13 -29 8 21 28 20 -8 13 11 10 15 7 7 6 5 4 5 2 4 6 2 14 7 7 18 10 5 3 2 4 3 4
12 -1 4 11 -1 7 15 15 4 8 12 2 8 31 -17 -13 -13 -7 -3 13 -5 -0 14 19 5 4 3 5 5 5 6 2 5 7 14 5 6 9 11 11 10 9 8 8
6 15 1 14 7 5 8 1 9 12 15 11 6 -0 4 13 17 13 30 11 12 0 3 16 -1 3 6 3 4 8 5 3 4 9 9 11 11 7 7 7 8 7 8 10
1 21 4 22 4 9 7 18 11 13 18 14 10 7 7 7 2 3 6 8 25 3 7 7 3 16 -3 8 6 5 3 4 -2 14 10 9 5 4 9 9 6 6 7 8
3 15 11 5 14 15 3 10 8 8 17 18 18 14 15 14 15 17 7 6 20 2 3 5 9 3 13 6 -5 11 12 4 -2 13 -2 3 5 8 10 7 7 11 10 8
-0 10 7 9 12 5 11 13 10 11 14 9 13 13 12 13 16 12 16 12 7 11 12 16 9 7 3 14 4 7 3 24 -5 16 4 1 7 -1 0 2 -2 6 8 7
25 2 6 4 4 3 5 7 5 12 3 11 10 6 7 9 9 8 7 14 13 10 12 15 9 10 10 9 9 11 6 8 7 8 10 6 9 -18 8 1 4 7 7 4
9 13 11 12 11 7 5 8 15 11 5 9 8 9 8 6 7 8 7 6 3 5 12 21 16 13 10 11 8 7 3 0 2 1 3 -6 1 14 21 -5 3 -2 11 2
27 23 15 14 16 17 11 7 8 12 12 13 10 12 15 11 11 7 4 4 2 16 13 20 6 4 16 9 7 5 4 8 7 7 -0 0 1 8 12 1 -3 4 10 11
4 14 12 12 11 8 12 15 11 7 6 10 11 3 -3 21 23 11 8 10 12 10 16 25 16 12 15 19 15 6 6 3 5 6 10 7 4 5 3 9 6 10 15 8
11 -4 25 4 9 19 -8 15 -2 14 12 8 8 11 2 3 4 15 38 15 21 19 27 20 24 16 13 9 7 11 8 7 5 6 15 10 7 3 6 4 1 3 4 9
10 7 3 -4 -3 -6 4 12 18 14 16 3 -4 2 3 5 17 1 17 28 10 8 37 12 21 26 22 13 15 12 7 8 14 6 7 11 11 8 2 3 7 8 21 11
23 -12 13 8 18 13 -9 18 10 17 15 13 8 4 7 23 17 18 8 6 29 -0 57 12 16 14 10 15 14 14 19 11 4 8 8 7 8 5 4 5 7 1 15 -4
Height
5696 5699 5700 5705 5707 5711 5712 5714 5716 5722 5726 5729 5727 5723 5729 5730 5730 5731 5731 5727 5729 5726 5726 5726 5722 5719 5716 5712 5707 5706 5705 5703 5703 5704 5707 5709 5708 5707 5709 5713 5720 5726 5732 5734
5683 5688 5695 5695 5697 5699 5702 5705 5707 5712 5715 5717 5716 5717 5721 5724 5726 5727 5727 5726 5725 5722 5723 5722 5719 5716 5714 5711 5707 5704 5703 5702 5702 5701 5702 5703 5706 5706 5708 5711 5714 5723 5728 5733
5673 5682 5683 5685 5685 5687 5692 5696 5699 5701 5703 5706 5708 5705 5713 5719 5719 5720 5722 5720 5722 5717 5719 5719 5717 5714 5712 5710 5707 5704 5701 5701 5702 5702 5703 5704 5705 5705 5706 5710 5714 5721 5726 5731
5665 5670 5672 5673 5675 5680 5681 5688 5688 5690 5694 5696 5702 5697 5704 5712 5712 5713 5715 5715 5717 5715 5711 5716 5713 5711 5709 5708 5706 5703 5701 5700 5699 5700 5701 5702 5703 5705 5708 5710 5714 5717 5721 5724
5658 5659 5662 5663 5667 5671 5672 5678 5679 5681 5684 5687 5693 5692 5697 5706 5707 5710 5708 5708 5711 5711 5707 5711 5710 5709 5706 5706 5705 5703 5702 5700 5698 5698 5699 5700 5701 5704 5707 5710 5711 5712 5716 5718
5645 5649 5651 5654 5658 5662 5665 5670 5671 5674 5677 5677 5684 5686 5688 5698 5704 5705 5707 5704 5706 5704 5703 5706 5707 5706 5704 5704 5703 5702 5702 5701 5699 5698 5699 5701 5702 5704 5706 5707 5709 5712 5714 5715
5635 5637 5642 5645 5648 5653 5656 5660 5665 5668 5667 5671 5678 5678 5682 5692 5695 5699 5695 5699 5701 5701 5700 5702 5704 5703 5702 5702 5702 5702 5701 5701 5700 5700 5700 5701 5701 5703 5704 5706 5708 5711 5713 5714
5621 5626 5631 5635 5641 5648 5650 5654 5659 5662 5665 5666 5668 5668 5676 5684 5687 5693 5691 5694 5694 5696 5696 5697 5700 5700 5701 5700 5700 5700 5699 5700 5701 5701 5700 5700 5701 5703 5705 5706 5706 5707 5708 5711
5613 5616 5625 5628 5631 5638 5644 5643 5654 5656 5660 5659 5662 5667 5672 5676 5680 5681 5686 5689 5688 5692 5691 5692 5695 5697 5698 5698 5697 5698 5698 5698 5699 5700 5700 5700 5699 5701 5704 5705 5707 5707 5709 5711
5608 5612 5616 5617 5625 5630 5635 5642 5644 5647 5650 5654 5659 5662 5665 5668 5672 5675 5679 5681 5683 5684 5686 5688 5690 5693 5695 5696 5695 5695 5696 5696 5695 5695 5696 5699 5699 5700 5701 5702 5704 5705 5708 5709
5600 5607 5611 5614 5619 5624 5627 5630 5635 5641 5644 5648 5653 5654 5657 5662 5666 5667 5670 5674 5675 5678 5682 5683 5685 5689 5691 5693 5693 5693 5693 5693 5692 5692 5692 5693 5696 5697 5698 5701 5702 5704 5705 5705
5592 5600 5607 5608 5613 5615 5617 5624 5629 5633 5639 5643 5647 5652 5651 5655 5656 5660 5663 5666 5669 5674 5676 5678 5680 5683 5685 5687 5689 5689 5690 5691 5690 5690 5689 5689 5691 5694 5694 5695 5698 5700 5701 5703
5590 5596 5600 5602 5608 5612 5614 5620 5623 5626 5632 5634 5640 5647 5648 5649 5650 5654 5659 5661 5665 5669 5671 5673 5674 5676 5679 5681 5683 5684 5685 5687 5688 5687 5687 5686 5687 5689 5691 5692 5693 5694 5697 5698
5580 5586 5593 5600 5598 5600 5606 5612 5614 5619 5622 5627 5632 5641 5641 5643 5644 5650 5653 5657 5659 5662 5665 5667 5669 5669 5672 5674 5677 5678 5680 5681 5683 5684 5685 5684 5684 5685 5686 5687 5689 5691 5692 5693
5572 5578 5584 5592 5593 5595 5600 5604 5608 5612 5616 5619 5626 5628 5634 5635 5637 5643 5647 5650 5654 5655 5657 5661 5663 5665 5665 5667 5670 5672 5674 5675 5676 5678 5681 5682 5681 5682 5682 5683 5683 5684 5686 5686
5565 5570 5577 5584 5587 5590 5594 5598 5601 5604 5607 5612 5615 5619 5626 5630 5633 5638 5641 5644 5647 5649 5651 5653 5656 5658 5660 5661 5663 5665 5667 5669 5670 5672 5674 5676 5677 5678 5678 5678 5678 5678 5678 5679
5558 5566 5572 5578 5581 5583 5587 5593 5595 5597 5599 5603 5605 5613 5615 5620 5624 5627 5630 5633 5634 5638 5642 5646 5647 5651 5651 5655 5657 5658 5661 5663 5666 5667 5668 5670 5671 5671 5672 5672 5672 5672 5673 5673
5553 5559 5565 5571 5574 5578 5582 5583 5585 5589 5592 5594 5597 5601 5606 5608 5611 5617 5620 5622 5627 5628 5629 5630 5633 5638 5642 5646 5646 5649 5653 5656 5659 5661 5662 5662 5663 5664 5665 5666 5666 5667 5667 5666
5547 5552 5558 5564 5568 5572 5574 5577 5579 5583 5584 5586 5589 5592 5596 5599 5604 5608 5610 5614 5618 5621 5626 5627 5630 5631 5634 5638 5641 5641 5645 5648 5649 5653 5654 5655 5657 5657 5658 5659 5659 5659 5659 5659
5540 5546 5552 5557 5561 5565 5565 5568 5572 5574 5576 5579 5581 5584 5588 5591 5593 5598 5600 5603 5607 5611 5616 5617 5620 5622 5625 5630 5632 5633 5635 5638 5639 5641 5644 5647 5649 5651 5651 5651 5651 5651 5650 5649
5535 5539 5545 5549 5553 5559 5561 5561 5567 5568 5572 5571 5574 5577 5578 5580 5582 5587 5587 5590 5595 5599 5603 5606 5609 5611 5614 5617 5619 5621 5624 5627 5631 5634 5635 5637 5637 5639 5639 5640 5640 5641 5640 5640
5531 5535 5539 5542 5546 5553 5554 5556 5558 5561 5562 5564 5564 5567 5569 5570 5572 5572 5575 5576 5577 5583 5585 5590 5593 5597 5600 5603 5607 5610 5614 5617 5619 5622 5624 5625 5627 5627 5628 5629 5629 5629 5629 5627
5528 5532 5535 5539 5542 5544 5547 5549 5551 5552 5555 5556 5558 5558 5560 5561 5560 5560 5560 5563 5566 5566 5568 5573 5577 5581 5585 5588 5590 5595 5599 5603 5606 5608 5611 5613 5615 5616 5616 5616 5617 5616 5616 5616
5524 5527 5529 5535 5538 5540 5541 5543 5543 5545 5548 5551 5553 5553 5551 5551 5550 5550 5549 5549 5551 5552 5554 5556 5561 5566 5569 5573 5575 5579 5584 5589 5593 5596 5598 5600 5602 5604 5604 5605 5604 5603 5603 5602
5519 5525 5527 5530 5532 5534 5536 5537 5539 5540 5540 5543 5544 5541 5542 5542 5543 5543 5543 5542 5541 5540 5541 5544 5548 5553 5556 5560 5562 5566 5570 5574 5578 5582 5584 5586 5589 5590 5591 5592 5591 5591 5588 5587
5516 5521 5523 5527 5528 5530 5532 5530 5532 5533 5534 5537 5535 5534 5534 5535 5536 5537 5537 5536 5535 5533 5529 5535 5539 5543 5547 5550 5553 5554 5557 5562 5567 5570 5572 5574 5576 5577 5578 5578 5579 5579 5578 5578